[[{"header":{"parameterUnit":"m.s-1","parameterCategory":1,"la1":30.2991,"la2":30.254,"lo1":-89.0895,"lo2":-89.0444,"dy":0.0017,"dx":0.0017,"nx":28,"ny":28,"refTime":"2025-03-13T09:00:00:Z","depth":0,"parameterNumber":2,"parameterNumberName":"U-component_of_WINDS"},"data":[0,0,0,0,0,0,0,0,0,0,0,0,0,0,0,0,0,0,0,0,0,0,0,0,0,0,0,0,0,0,0,0,0,0,0,0,0,0,0,0,0,0,0,0,0,0,0,0,0,0,0,0,0,0,0,0,0,0,-3.773,-3.7731,0,-3.7847,-3.7848,-3.7849,-3.7918,-3.7919,-3.7919,-3.7919,-3.8037,-3.804,-3.8042,0,0,0,0,0,0,0,0,0,0,0,0,0,-3.7565,-3.7567,-3.773,-3.7731,-3.7733,-3.7846,-3.7848,-3.785,-3.7918,-3.7919,-3.7919,-3.7919,-3.8036,-3.8039,-3.8043,0,0,0,0,0,0,0,0,0,0,0,0,0,-3.7654,-3.7568,-3.7729,-3.7781,-3.7786,-3.7846,-3.7848,-3.785,-3.7918,-3.7919,-3.7919,-3.792,-3.8035,-3.8039,-3.8043,-3.806,0,0,-3.8056,-3.8058,0,0,0,0,0,0,0,0,-3.7649,-3.766,-3.7772,-3.7777,-3.7784,-3.7868,-3.7833,-3.792,-3.7918,-3.7868,-3.7919,-3.792,-3.798,-3.7989,-3.801,-3.8066,-3.8071,-3.8056,-3.8059,-3.8061,-3.8062,0,0,0,0,0,0,0,-3.7643,-3.7655,-3.7776,-3.7773,-3.7781,-3.7797,-3.7811,-3.785,-3.792,-3.7872,-3.7878,-3.7891,-3.7984,-3.8006,-3.8013,-3.8072,-3.8056,-3.806,-3.8063,-3.8064,-3.8148,-3.8148,0,0,0,0,0,0,-3.7629,-3.765,-3.7772,-3.7779,-3.7716,-3.78,-3.7815,-3.7841,-3.792,-3.7932,-3.789,-3.7894,-3.7998,-3.8008,-3.8017,-3.8043,-3.8061,-3.8065,-3.8067,-3.8149,-3.8148,-3.8148,0,0,0,0,0,0,-3.7625,-3.7639,-3.7767,-3.7716,-3.7734,-3.7802,-3.7831,-3.7843,-3.7865,-3.7933,-3.7946,-3.79,-3.7999,-3.8011,-3.8049,-3.8048,-3.8067,-3.8071,-3.8149,-3.8148,-3.8148,-3.8093,0,0,0,0,0,0,-3.762,-3.7637,-3.7645,-3.7716,-3.7736,-3.7797,-3.7831,-3.7845,-3.7872,-3.7878,-3.7946,-3.7957,-3.8,-3.8042,-3.8053,-3.8054,-3.8074,-3.8149,-3.8149,-3.8148,-3.8095,-3.809,-3.8086,0,0,0,0,0,-3.7614,-3.7624,-3.7645,-3.7659,-3.7747,-3.7797,-3.7809,-3.7858,-3.7872,-3.788,-3.7924,-3.7955,-3.8046,-3.8046,-3.8059,-3.806,-3.815,-3.8149,-3.8148,-3.8097,-3.8091,-3.8086,0,0,0,0,0,0,-3.755,-3.7634,-3.7658,-3.7692,-3.7737,-3.7809,-3.782,-3.7851,-3.7893,-3.7896,-3.7955,-3.797,-3.8002,-3.8035,-3.8033,-3.8081,-3.8101,-3.8103,-3.8058,-3.8053,-3.8049,-3.804,-3.8078,0,0,0,0,0,-3.754,-3.7574,-3.7646,-3.7669,-3.769,-3.7751,-3.7775,-3.7809,-3.7858,-3.7877,-3.7924,-3.797,-3.8009,-3.8033,-3.8073,-3.81,-3.8116,-3.8108,-3.8104,-3.81,-3.81,-3.8117,-3.8115,-3.8145,-3.8145,-3.8145,0,0,-3.7519,-3.757,-3.7588,-3.7657,-3.7696,-3.7729,-3.7767,-3.78,-3.7826,-3.7882,-3.7921,-3.7956,-3.8011,-3.8044,-3.8061,-3.8073,-3.8096,-3.8099,-3.8095,-3.8098,-3.8116,-3.8113,-3.8111,-3.8145,-3.8145,-3.8145,0,0,-3.7499,-3.7541,-3.7564,-3.7603,-3.7662,-3.7702,-3.7708,-3.7775,-3.7801,-3.7841,-3.7884,-3.7915,-3.7981,-3.8018,-3.8046,-3.804,-3.807,-3.8051,-3.8029,-3.8044,-3.8042,-3.804,-3.8037,-3.8036,-3.8052,-3.8052,-3.8052,0,-3.7466,-3.7518,-3.7572,-3.7604,-3.7633,-3.7686,-3.771,-3.7745,-3.7813,-3.7832,-3.7845,-3.7929,-3.7969,-3.8011,-3.801,-3.8031,-3.8039,-3.8043,-3.8038,-3.8037,-3.8036,-3.8034,-3.8033,-3.8049,-3.8049,-3.8049,-3.805,0,-3.7474,-3.751,-3.7522,-3.7587,-3.7618,-3.7645,-3.7703,-3.7727,-3.7759,-3.7798,-3.7838,-3.7889,-3.794,-3.7953,-3.7984,-3.7999,-3.8005,-3.8027,-3.8048,-3.8029,-3.8028,-3.8028,-3.8045,-3.8046,-3.8047,-3.8047,0,0,-3.7416,-3.7512,-3.7515,-3.7545,-3.7614,-3.7642,-3.7672,-3.7723,-3.7742,-3.7788,-3.7814,-3.7869,-3.789,-3.7921,-3.7957,-3.7971,-3.7963,-3.7992,-3.7994,-3.7984,-3.7982,-3.7964,-3.7963,-3.7984,-3.7984,-3.7984,-3.7978,0,-3.7405,-3.7462,-3.7511,-3.7549,-3.7583,-3.7634,-3.766,-3.7705,-3.7743,-3.7776,-3.7818,-3.7855,-3.7881,-3.79,-3.7916,-3.796,-3.7963,-3.7962,-3.8008,-3.8009,-3.7992,-3.7963,-3.7944,-3.7935,-3.7978,-3.7978,-3.7978,0,-3.74,-3.7444,-3.7485,-3.7551,-3.7567,-3.7589,-3.7639,-3.7671,-3.7723,-3.7749,-3.7784,-3.7822,-3.7856,-3.7874,-3.7921,-3.7919,-3.7941,-3.7966,-3.7967,-3.7972,-3.7991,-3.7966,-3.7934,-3.7932,-3.7978,-3.7978,-3.7978,0,-3.7352,-3.7422,-3.7456,-3.748,-3.7557,-3.7572,-3.7605,-3.7657,-3.7684,-3.7728,-3.7747,-3.7793,-3.7819,-3.7854,-3.7904,-3.7913,-3.7945,-3.7968,-3.7967,-3.7966,-3.7971,-3.797,-3.794,-3.7987,-3.7987,-3.7987,-3.7987,0,-3.7334,-3.7357,-3.7435,-3.7456,-3.7483,-3.754,-3.7565,-3.7603,-3.7649,-3.7677,-3.7725,-3.7751,-3.7815,-3.7849,-3.7888,-3.792,-3.7932,-3.7953,-3.7963,-3.7949,-3.7946,-3.7963,-3.7964,-3.7986,-3.7986,-3.7986,-3.7987,0,-3.7285,-3.7338,-3.7378,-3.7449,-3.7467,-3.7484,-3.7544,-3.7566,-3.7607,-3.7642,-3.7654,-3.7717,-3.7759,-3.7812,-3.7871,-3.7897,-3.7925,-3.7941,-3.7907,-3.7913,-3.7909,-3.7908,-3.7889,-3.7889,-3.7935,-3.7935,-3.7934,0,-3.7269,-3.7289,-3.7361,-3.7384,-3.7415,-3.7451,-3.748,-3.7536,-3.7563,-3.7624,-3.7638,-3.7684,-3.7724,-3.7788,-3.7839,-3.7884,-3.7901,-3.7891,-3.7908,-3.7892,-3.79,-3.7898,-3.79,-3.7886,-3.7885,-3.7885,-3.7884,0,-3.7236,-3.7261,-3.73,-3.7348,-3.738,-3.7421,-3.7463,-3.7479,-3.7545,-3.7573,-3.7616,-3.7647,-3.7707,-3.7752,-3.7804,-3.7838,-3.7871,-3.7879,-3.7881,-3.7865,-3.7845,-3.7855,-3.7894,-3.7879,-3.7879,-3.788,-3.788,-3.788,-3.7203,-3.7222,-3.7276,-3.7317,-3.7356,-3.7394,-3.7418,-3.7462,-3.7499,-3.7553,-3.7584,-3.7626,-3.7678,-3.7752,-3.7784,-3.7818,-3.7831,-3.7834,-3.7835,-3.7834,-3.7829,-3.784,-3.7828,-3.7828,-3.7828,-3.7829,-3.7829,0,-3.7171,-3.7208,-3.7246,-3.7304,-3.7337,-3.7367,-3.7416,-3.7441,-3.7477,-3.7523,-3.7561,-3.7611,-3.7655,-3.7709,-3.7757,-3.7773,-3.779,-3.7784,-3.7782,-3.779,-3.7815,-3.7808,-3.7769,-3.7769,-3.7769,-3.7769,-3.7769,-3.7769,-3.7158,-3.7191,-3.7223,-3.7276,-3.7314,-3.7356,-3.7381,-3.7417,-3.7454,-3.7507,-3.7544,-3.758,-3.7629,-3.7681,-3.7722,-3.7737,-3.7752,-3.774,-3.776,-3.7783,-3.7788,-3.7793,-3.7787,-3.7743,-3.7743,-3.7731,-3.7731,-3.7731]},{"header":{"parameterUnit":"m.s-1","parameterCategory":1,"la1":30.2991,"la2":30.254,"lo1":-89.0895,"lo2":-89.0444,"dy":0.0017,"dx":0.0017,"nx":28,"ny":28,"refTime":"2025-03-13T09:00:00:Z","depth":0,"parameterNumber":3,"parameterNumberName":"V-component_of_WINDS"},"data":[0,0,0,0,0,0,0,0,0,0,0,0,0,0,0,0,0,0,0,0,0,0,0,0,0,0,0,0,0,0,0,0,0,0,0,0,0,0,0,0,0,0,0,0,0,0,0,0,0,0,0,0,0,0,0,0,0,0,7.1723,7.1723,0,7.181,7.1811,7.1812,7.1766,7.1764,7.1762,7.176,7.1844,7.1848,7.1853,0,0,0,0,0,0,0,0,0,0,0,0,0,7.1512,7.1516,7.1722,7.1724,7.1725,7.181,7.1811,7.1812,7.1767,7.1764,7.1761,7.1759,7.1842,7.1848,7.1853,0,0,0,0,0,0,0,0,0,0,0,0,0,7.1602,7.1518,7.1722,7.1712,7.1712,7.181,7.1811,7.1812,7.1767,7.1764,7.176,7.1757,7.1841,7.1847,7.1854,7.1964,0,0,7.1874,7.1877,0,0,0,0,0,0,0,0,7.1597,7.161,7.1713,7.1713,7.1713,7.1774,7.1768,7.1863,7.1768,7.1746,7.1759,7.1755,7.1823,7.1831,7.1855,7.1968,7.1971,7.1874,7.1878,7.1881,7.1883,0,0,0,0,0,0,0,7.1591,7.1606,7.1757,7.1714,7.1715,7.1702,7.1711,7.1786,7.1803,7.1748,7.1745,7.1756,7.1822,7.1848,7.1856,7.1973,7.1874,7.188,7.1884,7.1887,7.2183,7.2186,0,0,0,0,0,0,7.1586,7.1601,7.1754,7.1759,7.1646,7.1709,7.1719,7.1758,7.1802,7.1806,7.1759,7.1754,7.1839,7.1849,7.1859,7.1993,7.1881,7.1887,7.1891,7.2179,7.2183,7.2188,0,0,0,0,0,0,7.1581,7.16,7.1751,7.1679,7.1698,7.1716,7.176,7.1761,7.1787,7.1811,7.1813,7.1783,7.1837,7.185,7.1939,7.1995,7.189,7.1896,7.2174,7.218,7.2185,7.226,0,0,0,0,0,0,7.1575,7.1599,7.1641,7.1681,7.1702,7.183,7.1764,7.1766,7.18,7.1793,7.1833,7.1837,7.1835,7.1929,7.1946,7.2002,7.1902,7.2169,7.2177,7.2184,7.2253,7.2268,7.2281,0,0,0,0,0,7.1568,7.1657,7.1644,7.1663,7.1756,7.1834,7.1845,7.1843,7.1804,7.1847,7.1862,7.1835,7.1986,7.1939,7.1957,7.2016,7.2166,7.2175,7.2183,7.2246,7.2265,7.228,0,0,0,0,0,0,7.1621,7.1662,7.1648,7.1752,7.179,7.1826,7.188,7.1862,7.1911,7.1903,7.1896,7.1906,7.1999,7.2016,7.1963,7.2126,7.207,7.2082,7.2112,7.2129,7.2143,7.2137,7.1907,0,0,0,0,0,7.1646,7.1707,7.1739,7.1828,7.1848,7.1861,7.1895,7.189,7.1928,7.1943,7.1965,7.2001,7.2057,7.2094,7.2146,7.2255,7.2263,7.2304,7.2318,7.233,7.2341,7.2401,7.242,7.2216,7.2216,7.2216,0,0,7.1696,7.1726,7.1764,7.184,7.1868,7.1931,7.1875,7.1943,7.1989,7.1953,7.204,7.2057,7.2097,7.2197,7.2242,7.2214,7.2399,7.2341,7.235,7.2355,7.2412,7.2431,7.2449,7.2222,7.2221,7.222,0,0,7.182,7.1849,7.1927,7.1958,7.2003,7.2012,7.2031,7.207,7.208,7.2168,7.2142,7.2196,7.2292,7.2323,7.2351,7.2489,7.2466,7.2506,7.2579,7.2638,7.2654,7.2668,7.2719,7.2737,7.2517,7.2517,7.2517,0,7.1876,7.1972,7.1969,7.2041,7.2075,7.2048,7.2127,7.2156,7.2215,7.2239,7.2207,7.2329,7.2354,7.2462,7.2496,7.2519,7.254,7.2502,7.2652,7.2666,7.2679,7.2728,7.2746,7.2522,7.2521,7.2521,7.252,0,7.2039,7.2106,7.2164,7.2225,7.2265,7.234,7.2348,7.2389,7.2381,7.2393,7.2482,7.2512,7.2571,7.2596,7.2587,7.2703,7.2684,7.2653,7.2596,7.2704,7.2749,7.2767,7.2528,7.2527,7.2525,7.2524,0,0,7.2199,7.226,7.2281,7.2309,7.2358,7.2408,7.2482,7.2542,7.2578,7.2619,7.2681,7.2764,7.2736,7.2768,7.2763,7.2814,7.2924,7.2776,7.2777,7.2804,7.3054,7.3079,7.31,7.2909,7.2912,7.2915,7.3051,0,7.2327,7.2459,7.246,7.258,7.2642,7.2618,7.2682,7.2718,7.2731,7.2785,7.2798,7.2858,7.2815,7.2835,7.2884,7.29,7.2974,7.289,7.2966,7.2969,7.2958,7.3123,7.3149,7.3276,7.3068,7.3071,7.3074,0,7.2495,7.2546,7.2673,7.2715,7.2741,7.2799,7.2855,7.2906,7.2947,7.2953,7.299,7.2978,7.3052,7.2993,7.3095,7.3039,7.3069,7.3082,7.3087,7.3094,7.3028,7.3136,7.3316,7.3336,7.3101,7.3099,7.3097,0,7.2601,7.27,7.279,7.2815,7.2865,7.2907,7.2929,7.2967,7.3003,7.3051,7.3075,7.313,7.3161,7.3204,7.3206,7.3163,7.3311,7.3251,7.3317,7.3318,7.335,7.3348,7.3538,7.3368,7.3368,7.3368,7.3367,0,7.2745,7.2824,7.2839,7.2894,7.2982,7.2982,7.3069,7.3088,7.3122,7.318,7.316,7.3215,7.3215,7.327,7.3272,7.3358,7.3371,7.3378,7.3377,7.338,7.338,7.3401,7.3393,7.3373,7.3371,7.3371,7.337,0,7.2878,7.2891,7.2988,7.3029,7.3041,7.3104,7.3138,7.3191,7.3202,7.3276,7.3293,7.3311,7.3375,7.3382,7.3456,7.3458,7.3561,7.3551,7.3549,7.3547,7.3614,7.3608,7.3825,7.3854,7.3664,7.3666,7.3667,0,7.297,7.3031,7.308,7.3118,7.3144,7.3206,7.3244,7.3246,7.3286,7.3338,7.3385,7.3447,7.3498,7.3602,7.362,7.3677,7.3669,7.3741,7.3677,7.3679,7.3672,7.3669,7.3675,7.3754,7.3756,7.3758,7.3759,0,7.3133,7.3137,7.3193,7.3253,7.33,7.3346,7.3389,7.3422,7.3429,7.3475,7.3542,7.3581,7.3659,7.3721,7.3778,7.3799,7.3781,7.3779,7.3798,7.3802,7.3798,7.3803,7.3584,7.3774,7.3773,7.3771,7.3771,7.377,7.3249,7.3303,7.3346,7.3411,7.3444,7.3486,7.3538,7.3557,7.3614,7.3678,7.3675,7.3749,7.3789,7.3863,7.3889,7.3946,7.3922,7.3949,7.3956,7.3963,7.397,7.3789,7.3956,7.3956,7.3955,7.3955,7.3955,0,7.3412,7.3439,7.3498,7.3561,7.3612,7.3592,7.3639,7.3683,7.3749,7.3788,7.384,7.3917,7.3978,7.4003,7.4062,7.4103,7.4097,7.4119,7.4117,7.4122,7.3988,7.3966,7.4124,7.4124,7.4124,7.4124,7.4124,7.4124,7.3503,7.3594,7.3603,7.371,7.3736,7.3811,7.384,7.3878,7.391,7.3998,7.405,7.4066,7.41,7.4162,7.4217,7.4223,7.4246,7.4273,7.4275,7.4149,7.4131,7.4115,7.4095,7.4278,7.4278,7.4405,7.4406,7.4407]}]]